CW4784 Weather Reports


time (UTC)temp
C
wind
direction
speed
KPH
gust
KPH
rain 1hr
cm
rain 24hr
cm
rain mn
cm
humidity
%
barometer
mb
20260906213019 32 117 3.2 19.3 0.00 0.00 0.00 25 1018.4
20260906212509 33 134 11.3 19.3 0.00 0.00 0.00 24 1018.4
20260906212010 33 103 9.7 19.3 0.00 0.00 0.00 27 1018.5
20260906211529 33 80 6.4 16.1 0.00 0.00 0.00 26 1018.6
20260906211011 33 98 4.8 19.3 0.00 0.00 0.00 24 1018.7
20260906210512 32 83 6.4 19.3 0.00 0.00 0.00 25 1018.7
20260906210016 33 39 8.0 17.7 0.00 0.00 0.00 26 1018.9
20260906205512 33 111 6.4 20.9 0.00 0.00 0.00 25 1018.9
20260906205010 32 76 11.3 20.9 0.00 0.00 0.00 26 1019.1
20260906204527 32 91 8.0 20.9 0.00 0.00 0.00 27 1019.1
20260906204014 32 70 11.3 20.9 0.00 0.00 0.00 28 1019.2
20260906203512 32 136 8.0 20.9 0.00 0.00 0.00 28 1019.3
20260906203015 31 104 8.0 20.9 0.00 0.00 0.00 29 1019.4
20260906202509 32 65 8.0 20.9 0.00 0.00 0.00 29 1019.4
20260906202014 32 87 11.3 17.7 0.00 0.00 0.00 29 1019.5
20260906201525 32 68 8.0 17.7 0.00 0.00 0.00 28 1019.6
20260906201011 31 96 4.8 16.1 0.00 0.00 0.00 30 1019.6
20260906200515 31 126 6.4 16.1 0.00 0.00 0.00 29 1019.7
20260906200025 31 88 3.2 17.7 0.00 0.00 0.00 30 1019.7
20260906195511 31 115 8.0 17.7 0.00 0.00 0.00 29 1019.9
20260906195004 31 89 3.2 14.5 0.00 0.00 0.00 29 1019.9
20260906194509 31 85 4.8 14.5 0.00 0.00 0.00 29 1020.0
20260906194003 30 78 1.6 14.5 0.00 0.00 0.00 30 1020.1
20260906193504 31 42 3.2 14.5 0.00 0.00 0.00 30 1020.2
20260906193004 30 86 3.2 12.9 0.00 0.00 0.00 30 1020.3
20260906192502 31 105 8.0 14.5 0.00 0.00 0.00 29 1020.4
20260906192004 30 19 6.4 14.5 0.00 0.00 0.00 29 1020.5
20260906191509 31 55 4.8 14.5 0.00 0.00 0.00 32 1020.6
20260906191003 30 109 6.4 19.3 0.00 0.00 0.00 33 1020.6
20260906190503 30 57 4.8 19.3 0.00 0.00 0.00 34 1020.7
20260906190005 30 54 6.4 17.7 0.00 0.00 0.00 35 1020.8
20260906185503 30 42 6.4 12.9 0.00 0.00 0.00 33 1020.9
20260906185004 29 17 4.8 16.1 0.00 0.00 0.00 32 1021.0
20260906184507 29 350 8.0 16.1 0.00 0.00 0.00 32 1021.2
20260906184006 30 55 4.8 19.3 0.00 0.00 0.00 32 1021.3
20260906183505 30 38 8.0 19.3 0.00 0.00 0.00 31 1021.3
20260906183005 30 71 6.4 17.7 0.00 0.00 0.00 31 1021.3
20260906182507 30 59 9.7 17.7 0.00 0.00 0.00 31 1021.5
20260906182004 29 61 3.2 16.1 0.00 0.00 0.00 31 1021.6
20260906181524 29 40 3.2 16.1 0.00 0.00 0.00 31 1021.7
20260906181004 28 15 11.3 16.1 0.00 0.00 0.00 32 1021.8
20260906180504 28 34 4.8 19.3 0.00 0.00 0.00 32 1021.9
20260906180016 30 60 3.2 19.3 0.00 0.00 0.00 32 1021.9
20260906175508 30 43 11.3 19.3 0.00 0.00 0.00 30 1022.0
20260906175003 30 5 6.4 16.1 0.00 0.00 0.00 30 1022.1
20260906174515 30 40 6.4 14.5 0.00 0.00 0.00 30 1022.1
20260906174007 30 18 8.0 14.5 0.00 0.00 0.00 30 1022.2
20260906173506 30 342 6.4 14.5 0.00 0.00 0.00 31 1022.2
20260906173017 30 347 6.4 14.5 0.00 0.00 0.00 32 1022.3
20260906172506 30 88 4.8 17.7 0.00 0.00 0.00 32 1022.4
20260906172006 30 318 8.0 17.7 0.00 0.00 0.00 33 1022.5
20260906171517 29 342 9.7 16.1 0.00 0.00 0.00 32 1022.5
20260906171004 28 82 4.8 20.9 0.00 0.00 0.00 32 1022.6
20260906170508 28 68 6.4 20.9 0.00 0.00 0.00 32 1022.6
20260906170008 28 360 9.7 17.7 0.00 0.00 0.00 33 1022.6
20260906165504 28 355 6.4 16.1 0.00 0.00 0.00 35 1022.7
20260906165007 27 17 4.8 17.7 0.00 0.00 0.00 34 1022.6
20260906164511 27 11 9.7 19.3 0.00 0.00 0.00 32 1022.6
20260906164005 27 342 9.7 19.3 0.00 0.00 0.00 35 1022.6
20260906163510 27 5 11.3 19.3 0.00 0.00 0.00 34 1022.7
20260906163004 27 14 9.7 19.3 0.00 0.00 0.00 34 1022.7
20260906162507 27 34 11.3 17.7 0.00 0.00 0.00 36 1022.7
20260906162007 26 31 12.9 17.7 0.00 0.00 0.00 36 1022.6
20260906161524 26 35 9.7 17.7 0.00 0.00 0.00 36 1022.6
20260906161006 26 17 9.7 16.1 0.00 0.00 0.00 37 1022.6
20260906160506 26 355 6.4 16.1 0.00 0.00 0.00 38 1022.7
20260906160010 26 31 6.4 16.1 0.00 0.00 0.00 38 1022.5
20260906155507 26 342 9.7 16.1 0.00 0.00 0.00 37 1022.5
20260906155004 26 344 9.7 17.7 0.00 0.00 0.00 37 1022.5
20260906154522 26 350 8.0 17.7 0.00 0.00 0.00 38 1022.4
20260906154006 26 334 4.8 16.1 0.00 0.00 0.00 39 1022.4
20260906153509 26 355 6.4 16.1 0.00 0.00 0.00 39 1022.4
20260906153017 25 346 8.0 16.1 0.00 0.00 0.00 40 1022.5
20260906152507 25 345 11.3 16.1 0.00 0.00 0.00 40 1022.5
20260906152012 25 342 11.3 17.7 0.00 0.00 0.00 40 1022.5
20260906151517 25 349 12.9 17.7 0.00 0.00 0.00 40 1022.4
20260906151012 25 15 11.3 17.7 0.00 0.00 0.00 41 1022.5
20260906150509 24 341 9.7 17.7 0.00 0.00 0.00 43 1022.5
20260906150014 24 352 9.7 17.7 0.00 0.00 0.00 43 1022.5
20260906145509 23 355 8.0 14.5 0.00 0.00 0.00 44 1022.5
20260906145010 23 325 8.0 16.1 0.00 0.00 0.00 46 1022.5
20260906144512 23 330 9.7 16.1 0.00 0.00 0.00 46 1022.6
20260906144006 22 316 6.4 11.3 0.00 0.00 0.00 47 1022.6
20260906143511 21 231 3.2 4.8 0.00 0.00 0.00 50 1022.6
20260906143012 21 231 0.0 4.8 0.00 0.00 0.00 49 1022.6
20260906142508 21 167 3.2 6.4 0.00 0.00 0.00 53 1022.6
20260906142008 20 167 0.0 6.4 0.00 0.00 0.00 53 1022.6
20260906141524 20 167 0.0 6.4 0.00 0.00 0.00 55 1022.5
20260906141007 20 105 1.6 4.8 0.00 0.00 0.00 55 1022.5
20260906140507 20 105 0.0 3.2 0.00 0.00 0.00 57 1022.4
20260906140017 19 105 0.0 6.4 0.00 0.00 0.00 60 1022.3
20260906135509 19 105 3.2 6.4 0.00 0.00 0.00 61 1022.2
20260906135011 18 246 0.0 0.0 0.00 0.00 0.00 66 1022.1
20260906134530 17 246 0.0 1.6 0.00 0.00 0.00 66 1021.9
20260906134013 17 246 0.0 4.8 0.00 0.00 0.00 66 1021.9
20260906133514 17 246 1.6 6.4 0.00 0.00 0.00 66 1021.8
20260906133024 16 246 3.2 6.4 0.00 0.00 0.00 67 1021.8
20260906132513 16 246 3.2 6.4 0.00 0.00 0.00 66 1021.8
20260906132015 16 246 1.6 11.3 0.00 0.00 0.00 65 1021.8
20260906131514 15 246 4.8 11.3 0.00 0.00 0.00 66 1021.7
20260906131009 15 240 6.4 9.7 0.00 0.00 0.00 67 1021.7
20260906130511 15 209 1.6 8.0 0.00 0.00 0.00 67 1021.7
20260906130013 14 198 3.2 8.0 0.00 0.00 0.00 69 1021.6
20260906125512 14 24 4.8 8.0 0.00 0.00 0.00 69 1021.6
20260906125013 15 13 3.2 6.4 0.00 0.00 0.00 68 1021.6
20260906124516 15 13 3.2 6.4 0.00 0.00 0.00 68 1021.6
20260906124014 15 13 3.2 8.0 0.00 0.00 0.00 66 1021.5
20260906123510 14 13 3.2 8.0 0.00 0.00 0.00 64 1021.5
20260906123018 15 12 3.2 8.0 0.00 0.00 0.00 63 1021.4
20260906122513 15 12 3.2 4.8 0.00 0.00 0.00 63 1021.3
20260906122016 15 12 0.0 11.3 0.00 0.00 0.00 62 1021.3
20260906121522 15 12 1.6 12.9 0.00 0.00 0.00 62 1021.3
20260906121011 16 12 9.7 12.9 0.00 0.00 0.00 61 1021.2
20260906120512 16 13 4.8 8.0 0.00 0.00 0.00 61 1021.1
20260906120022 15 13 4.8 8.0 0.00 0.00 0.00 62 1021.1
20260906115513 15 13 0.0 8.0 0.00 0.00 0.00 62 1021.2
20260906115011 15 13 0.0 8.0 0.00 0.00 0.00 63 1021.2
20260906114541 16 13 6.4 8.0 0.00 0.00 0.00 64 1021.0
20260906114013 16 13 3.2 9.7 0.00 0.00 0.00 64 1021.0
20260906113513 16 13 4.8 9.7 0.00 0.00 0.00 64 1021.0
20260906113024 17 35 3.2 8.0 0.00 0.00 0.00 60 1021.0
20260906112513 17 15 3.2 8.0 0.00 0.00 0.00 59 1020.9
20260906112018 18 15 4.8 6.4 0.00 0.00 0.00 60 1020.8
20260906111518 18 15 3.2 8.0 0.00 0.00 0.00 60 1020.9
20260906111017 18 15 1.6 8.0 0.00 0.00 0.00 60 1021.0
20260906110512 18 15 4.8 8.0 0.00 0.00 0.00 61 1020.9
20260906110026 18 15 6.4 8.0 0.00 0.00 0.00 62 1020.9
20260906105516 18 15 6.4 8.0 0.00 0.00 0.00 62 1021.0
20260906105004 18 15 4.8 8.0 0.00 0.00 0.00 62 1021.0
20260906104507 18 15 4.8 8.0 0.00 0.00 0.00 62 1021.0
20260906104003 18 15 6.4 8.0 0.00 0.00 0.00 62 1021.1
20260906103506 18 15 4.8 9.7 0.00 0.00 0.00 62 1021.2
20260906103008 18 15 4.8 11.3 0.00 0.00 0.00 62 1021.2
20260906102505 18 15 6.4 11.3 0.00 0.00 0.00 62 1021.1
20260906102002 18 15 6.4 12.9 0.00 0.00 0.00 62 1021.1
20260906101506 18 15 6.4 12.9 0.00 0.00 0.00 62 1021.1
20260906101005 18 15 6.4 11.3 0.00 0.00 0.00 62 1021.1
20260906100508 17 15 4.8 12.9 0.00 0.00 0.00 62 1021.0
20260906100010 17 15 6.4 12.9 0.00 0.00 0.00 62 1021.1
20260906095508 17 15 6.4 14.5 0.00 0.00 0.00 62 1021.1
20260906095004 17 15 8.0 14.5 0.00 0.00 0.00 63 1021.0
20260906094515 17 15 8.0 16.1 0.00 0.00 0.00 63 1021.0
20260906094006 17 15 9.7 16.1 0.00 0.00 0.00 63 1021.0
20260906093508 17 15 11.3 17.7 0.00 0.00 0.00 63 1020.9
20260906093011 17 15 12.9 19.3 0.00 0.00 0.00 64 1020.9
20260906092508 17 15 14.5 19.3 0.00 0.00 0.00 63 1020.8
20260906092008 17 15 12.9 16.1 0.00 0.00 0.00 60 1021.0
20260906091506 17 15 9.7 12.9 0.00 0.00 0.00 58 1021.0
20260906091009 17 15 4.8 12.9 0.00 0.00 0.00 58 1020.9
20260906090504 17 34 8.0 12.9 0.00 0.00 0.00 57 1020.9
20260906090011 17 31 8.0 12.9 0.00 0.00 0.00 57 1020.8
20260906085506 17 32 4.8 9.7 0.00 0.00 0.00 57 1020.7
20260906085003 17 31 6.4 12.9 0.00 0.00 0.00 57 1020.6
20260906084509 17 34 6.4 12.9 0.00 0.00 0.00 57 1020.4
20260906084006 17 32 8.0 12.9 0.00 0.00 0.00 55 1020.4
20260906083507 17 35 3.2 12.9 0.00 0.00 0.00 54 1020.3
20260906083014 17 16 3.2 8.0 0.00 0.00 0.00 54 1020.3
20260906082512 17 16 4.8 8.0 0.00 0.00 0.00 56 1020.2
20260906082007 17 34 1.6 6.4 0.00 0.00 0.00 56 1020.1
20260906081513 17 36 1.6 6.4 0.00 0.00 0.00 55 1020.0
20260906081011 18 30 1.6 6.4 0.00 0.00 0.00 54 1020.0
20260906080508 17 29 3.2 8.0 0.00 0.00 0.00 55 1019.9
20260906080013 17 26 4.8 8.0 0.00 0.00 0.00 57 1019.9
20260906075511 17 28 0.0 3.2 0.00 0.00 0.00 57 1020.0
20260906075007 17 28 0.0 4.8 0.00 0.00 0.00 58 1020.0
20260906074510 17 34 3.2 9.7 0.00 0.00 0.00 58 1019.9
20260906074006 17 57 3.2 9.7 0.00 0.00 0.00 59 1019.8
20260906073504 17 38 3.2 6.4 0.00 0.00 0.00 58 1019.8
20260906073023 18 97 0.0 3.2 0.00 0.00 0.00 55 1019.8
20260906072508 18 111 0.0 3.2 0.00 0.00 0.00 56 1019.8
20260906072012 18 151 0.0 3.2 0.00 0.00 0.00 56 1019.8
20260906071515 18 133 0.0 6.4 0.00 0.00 0.00 56 1019.8
20260906071009 18 155 1.6 9.7 0.00 0.00 0.00 56 1019.8
20260906070518 18 268 1.6 9.7 0.00 0.00 0.00 54 1019.8
20260906070017 18 157 1.6 6.4 0.00 0.00 0.00 54 1019.8
20260906065513 18 164 1.6 9.7 0.00 0.00 0.00 54 1019.9
20260906065014 18 158 3.2 9.7 0.00 0.00 0.00 53 1020.0
20260906064516 18 173 3.2 9.7 0.00 0.00 0.00 53 1020.1
20260906064008 19 171 4.8 9.7 0.00 0.00 0.00 53 1020.0
20260906063509 19 170 6.4 9.7 0.00 0.00 0.00 54 1020.0
20260906063018 19 122 3.2 8.0 0.00 0.00 0.00 54 1020.0
20260906062509 19 121 1.6 8.0 0.00 0.00 0.00 55 1020.0
20260906062011 19 255 1.6 9.7 0.00 0.00 0.00 55 1020.0
20260906061518 20 148 0.0 9.7 0.00 0.00 0.00 55 1019.9
20260906061011 20 209 1.6 6.4 0.00 0.00 0.00 55 1019.8
20260906060511 20 209 1.6 14.5 0.00 0.00 0.00 54 1019.8
20260906060023 20 209 4.8 14.5 0.00 0.00 0.00 54 1019.6
20260906055511 20 207 8.0 14.5 0.00 0.00 0.00 54 1019.7
20260906055010 20 209 9.7 19.3 0.00 0.00 0.00 54 1020.0
20260906054515 20 217 11.3 22.5 0.00 0.00 0.00 55 1020.1
20260906054013 20 190 14.5 29.0 0.00 0.00 0.00 56 1020.2
20260906053508 20 180 19.3 29.0 0.00 0.00 0.00 55 1020.2
20260906053026 20 180 19.3 25.7 0.00 0.00 0.00 55 1020.2
20260906052512 20 184 14.5 20.9 0.00 0.00 0.00 54 1020.2
20260906052011 20 198 14.5 22.5 0.00 0.00 0.00 54 1020.4
20260906051514 20 183 16.1 22.5 0.00 0.00 0.00 54 1020.4
20260906051010 20 201 12.9 19.3 0.00 0.00 0.00 54 1020.4
20260906050515 20 209 11.3 17.7 0.00 0.00 0.00 54 1020.6
20260906050027 20 194 12.9 17.7 0.00 0.00 0.00 53 1020.7
20260906045513 21 195 11.3 17.7 0.00 0.00 0.00 52 1020.7
20260906045010 21 207 9.7 24.1 0.00 0.00 0.00 50 1020.8
20260906044518 21 211 12.9 24.1 0.00 0.00 0.00 49 1020.9
20260906044009 21 203 14.5 25.7 0.00 0.00 0.00 49 1020.8
20260906043513 21 186 16.1 25.7 0.00 0.00 0.00 51 1020.9
20260906043027 21 187 14.5 22.5 0.00 0.00 0.00 49 1021.0
20260906042513 21 196 14.5 22.5 0.00 0.00 0.00 49 1021.0
20260906042014 21 204 12.9 19.3 0.00 0.00 0.00 49 1021.0
20260906041531 20 211 12.9 19.3 0.00 0.00 0.00 49 1020.9
20260906041012 20 214 12.9 17.7 0.00 0.00 0.00 50 1020.8
20260906040514 20 216 11.3 16.1 0.00 0.00 0.00 51 1020.8
20260906040033 20 215 11.3 14.5 0.00 0.00 0.00 51 1020.8
20260906035511 20 217 9.7 14.5 0.00 0.00 0.00 52 1020.8
20260906035007 20 223 4.8 8.0 0.00 0.00 0.00 50 1020.8
20260906034508 20 223 1.6 6.4 0.00 0.00 0.00 49 1020.7
20260906034004 20 223 3.2 6.4 0.00 0.00 0.00 48 1020.8
20260906033502 20 223 3.2 6.4 0.00 0.00 0.00 49 1020.7
20260906033003 20 107 1.6 6.4 0.00 0.00 0.00 49 1020.6
20260906032502 20 107 1.6 8.0 0.00 0.00 0.00 48 1020.7
20260906032004 20 69 1.6 8.0 0.00 0.00 0.00 48 1020.6
20260906031505 20 169 4.8 6.4 0.00 0.00 0.00 48 1020.4
20260906031007 21 229 0.0 6.4 0.00 0.00 0.00 47 1020.2
20260906030504 21 229 1.6 8.0 0.00 0.00 0.00 45 1020.0
20260906030009 21 248 3.2 12.9 0.00 0.00 0.00 45 1019.9
20260906025506 21 232 6.4 12.9 0.00 0.00 0.00 44 1019.8
20260906025004 21 230 6.4 12.9 0.00 0.00 0.00 45 1019.7
20260906024519 21 222 9.7 12.9 0.00 0.00 0.00 45 1019.8
20260906024006 21 220 9.7 14.5 0.00 0.00 0.00 45 1019.8
20260906023505 21 223 9.7 14.5 0.00 0.00 0.00 44 1019.7
20260906023010 21 227 9.7 12.9 0.00 0.00 0.00 44 1019.6
20260906022503 22 217 8.0 12.9 0.00 0.00 0.00 44 1019.6
20260906022003 22 223 6.4 12.9 0.00 0.00 0.00 44 1019.6
20260906021510 22 225 8.0 12.9 0.00 0.00 0.00 44 1019.5
20260906021004 22 234 6.4 11.3 0.00 0.00 0.00 45 1019.4
20260906020504 22 234 3.2 8.0 0.00 0.00 0.00 45 1019.4
20260906020004 22 239 3.2 8.0 0.00 0.00 0.00 45 1019.3
20260906015507 22 215 3.2 6.4 0.00 0.00 0.00 44 1019.3
20260906015004 23 215 1.6 9.7 0.00 0.00 0.00 44 1019.3
20260906014509 23 215 4.8 9.7 0.00 0.00 0.00 43 1019.3
20260906014012 23 225 4.8 9.7 0.00 0.00 0.00 42 1019.3
20260906013506 23 218 6.4 11.3 0.00 0.00 0.00 41 1019.1
20260906013022 24 225 6.4 11.3 0.00 0.00 0.00 40 1019.0
20260906012508 24 225 6.4 9.7 0.00 0.00 0.00 39 1019.0
20260906012006 25 196 6.4 9.7 0.00 0.00 0.00 39 1018.9
20260906011510 25 166 6.4 9.7 0.00 0.00 0.00 39 1018.9
20260906011007 25 166 8.0 12.9 0.00 0.00 0.00 39 1018.9
20260906010505 26 165 8.0 16.1 0.00 0.00 0.00 39 1019.0
20260906010007 26 173 9.7 16.1 0.00 0.00 0.00 38 1019.1
20260906005507 27 175 9.7 12.9 0.00 0.00 0.00 38 1019.1
20260906005008 28 169 8.0 14.5 0.00 0.00 0.00 35 1019.0
20260906004514 28 161 8.0 16.1 0.00 0.00 0.00 34 1019.1
20260906004005 28 159 9.7 16.1 0.00 0.00 0.00 33 1019.1
20260906003507 28 157 8.0 12.9 0.00 0.00 0.00 33 1018.9
20260906003014 29 142 4.8 11.3 0.00 0.00 0.00 33 1018.9
20260906002506 29 161 1.6 8.0 0.00 0.00 0.00 34 1018.9
20260906002008 29 158 3.2 9.7 0.00 0.00 0.00 33 1018.9
20260906001513 29 157 3.2 9.7 0.00 0.00 0.00 30 1018.9
20260906001007 30 152 4.8 9.7 0.00 0.00 0.00 30 1018.9
20260906000508 30 124 4.8 12.9 0.00 0.00 0.00 30 1018.9
20260906000010 30 145 4.8 12.9 0.00 0.00 0.00 30 1018.9
20260905235519 30 138 4.8 9.7 0.00 0.00 0.00 29 1018.8
20260905235006 30 159 4.8 11.3 0.00 0.00 0.00 32 1018.8
20260905234510 30 163 6.4 11.3 0.00 0.00 0.00 32 1018.9
20260905234007 30 113 1.6 8.0 0.00 0.00 0.00 30 1018.9
20260905233507 29 123 4.8 11.3 0.00 0.00 0.00 33 1018.9
20260905233015 28 109 0.0 11.3 0.00 0.00 0.00 32 1018.9
20260905232507 28 123 4.8 14.5 0.00 0.00 0.00 32 1018.9
20260905232006 28 90 6.4 17.7 0.00 0.00 0.00 31 1018.9
20260905231516 29 93 6.4 19.3 0.00 0.00 0.00 30 1019.0
20260905231008 29 106 14.5 20.9 0.00 0.00 0.00 29 1019.0
20260905230508 30 73 11.3 20.9 0.00 0.00 0.00 27 1019.1
20260905230023 29 82 6.4 25.7 0.00 0.00 0.00 29 1019.1
20260905225505 28 80 12.9 30.6 0.00 0.00 0.00 31 1019.1
20260905225010 28 86 22.5 30.6 0.00 0.00 0.00 30 1019.2
20260905224533 28 82 17.7 33.8 0.00 0.00 0.00 31 1019.3
20260905224007 28 121 14.5 33.8 0.00 0.00 0.00 32 1019.4
20260905223506 27 82 17.7 38.6 0.00 0.00 0.00 36 1019.5
20260905223012 26 148 25.7 54.7 0.00 0.00 0.00 38 1019.4
20260905222506 27 150 33.8 54.7 0.00 0.00 0.00 36 1019.3
20260905222009 28 126 37.0 49.9 0.00 0.00 0.00 32 1019.2
20260905221514 28 159 37.0 49.9 0.00 0.00 0.00 32 1019.3
20260905221010 30 215 14.5 27.4 0.00 0.00 0.00 30 1019.2
20260905220511 31 164 8.0 14.5 0.00 0.00 0.00 28 1019.2
20260905220028 31 155 1.6 6.4 0.00 0.00 0.00 28 1019.1
20260905215509 31 58 0.0 1.6 0.00 0.00 0.00 23 1019.1
20260905215009 31 58 0.0 3.2 0.00 0.00 0.00 25 1019.1
20260905214531 31 58 0.0 4.8 0.00 0.00 0.00 24 1019.1
20260905214010 31 58 0.0 4.8 0.00 0.00 0.00 24 1019.2
20260905213509 31 58 1.6 6.4 0.00 0.00 0.00 25 1019.1